Location: Riverside Cemetery
(38.3047°N, 99.7773°W)
Time: 00:48:39
(UTC+00:00)

NOSS 3-2 (A) - Pass Details

Date: 19 September 2020
Orbit: 795 x 1413 km, 63.4° (Epoch: 02 October)

Event Time Altitude Azimuth Distance (km) Brightness Sun altitude
Rises 03:11:56 0° 326° (NW) 4,046 7.6 -29.2°
Reaches altitude 10° 03:14:31 10° 326° (NW) 3,161 6.9 -29.6°
Maximum altitude 03:22:19 86° 240° (WSW) 1,332 4.0 -31.0°
Enters shadow 03:23:35 68° 160° (SSE) 1,427 4.0 -31.2°
